Date String (YYYY-MM-DD hh:mm:ss) UTC,Instrument flags,absolute air pressure of the measurement (hPa),sample flow rate (lpm),inlet stack bypass flow (lpm),air temperature of the measurement (°C),ambient temperature measured by the external sensor (°C),aerosol sample conditioner tube jacket temperature (°C),OPC LED temperature (°C),internal box temperature (°C),relative humidity of the measurement (%),span deviation,mass concentration of particles derived from Lorenz-Mie calculation of OPC scattering (μg/m³),mass concentration of particles derived from Lorenz-Mie calculation of OPC scattering (μg/m³),mass concentration of particles derived from Lorenz-Mie calculation of OPC scattering (μg/m³)
DateTimeUTC,F1_M11,P_M11,Q1_M11,Q2_M11,T1_M11,T2_M11,T3_M11,T4_M11,T5_M11,U1_M11,ZSPAN_M11,X2_M11,X0_M11,X1_M11
2023-10-27 23:00:00,SystemResetWarning,0830.6,5.00,000.00,024.7,023.5,000.0,033.0,026.3,12.6,-001.0,0008.48,0014.04,0007.76
2023-10-27 23:01:00,SystemResetWarning,0830.6,5.00,000.00,024.8,023.5,000.0,033.0,026.4,12.6,-000.9,0008.42,0013.29,0007.74
2023-10-27 23:02:00,SystemResetWarning,0830.7,5.01,000.00,024.8,023.5,000.0,033.0,026.4,12.6,-000.7,0008.37,0012.81,0007.73
2023-10-27 23:03:00,SystemResetWarning,0830.7,5.01,000.00,024.8,023.5,000.0,033.0,026.4,12.7,-000.3,0008.34,0012.71,0007.73
2023-10-27 23:04:00,SystemResetWarning,0830.7,5.01,000.00,024.8,023.5,000.0,033.0,026.4,12.7,-000.2,0008.35,0012.67,0007.77
2023-10-27 23:05:00,SystemResetWarning,0830.7,5.00,000.00,024.8,023.5,000.0,033.0,026.4,12.7,-000.5,0008.41,0012.78,0007.81
2023-10-27 23:06:00,SystemResetWarning,0830.7,5.00,000.00,024.8,023.5,000.0,033.0,026.3,12.8,-000.4,0008.43,0012.89,0007.84
2023-10-27 23:07:00,SystemResetWarning,0830.7,5.00,000.00,024.8,023.5,000.0,033.0,026.4,12.9,0000.2,0008.43,0012.97,0007.84
2023-10-27 23:08:00,SystemResetWarning,0830.8,4.99,000.00,024.8,023.6,000.0,033.0,026.4,12.9,-000.3,0008.44,0013.59,0007.82
2023-10-27 23:09:00,SystemResetWarning,0830.8,4.99,000.00,024.9,023.6,000.0,033.0,026.4,12.9,0000.1,0008.43,0013.19,0007.79
2023-10-27 23:10:00,SystemResetWarning,0830.8,5.00,000.00,024.9,023.6,000.0,033.1,026.4,12.8,0000.5,0008.41,0013.46,0007.78
2023-10-27 23:11:00,SystemResetWarning,0830.7,5.01,000.00,024.9,023.6,000.0,033.1,026.5,12.8,0000.3,0008.38,0013.17,0007.77
2023-10-27 23:12:00,SystemResetWarning,0830.7,5.01,000.00,024.9,023.6,000.0,033.1,026.5,12.8,0000.2,0008.35,0012.94,0007.75
2023-10-27 23:13:00,SystemResetWarning,0830.6,5.00,000.00,024.9,023.6,000.0,033.1,026.5,12.7,0000.0,0008.37,0012.97,0007.75
2023-10-27 23:14:00,SystemResetWarning,0830.6,5.01,000.00,024.9,023.6,000.0,033.1,026.5,12.6,0000.1,0008.34,0013.37,0007.73
2023-10-27 23:15:00,SystemResetWarning,0830.6,5.00,000.00,024.9,023.7,000.0,033.1,026.5,12.7,-000.2,0008.34,0013.70,0007.69
2023-10-27 23:16:00,SystemResetWarning,0830.6,5.00,000.00,024.9,023.7,000.0,033.1,026.5,12.7,-000.3,0008.29,0013.75,0007.64
2023-10-27 23:17:00,SystemResetWarning,0830.7,5.00,000.00,024.9,023.6,000.0,033.1,026.5,12.7,0000.2,0008.23,0013.55,0007.59
2023-10-27 23:18:00,SystemResetWarning,0830.7,5.00,000.00,025.0,023.6,000.0,033.1,026.5,12.6,-000.2,0008.17,0013.13,0007.55
2023-10-27 23:19:00,SystemResetWarning,0830.7,5.00,000.00,025.0,023.7,000.0,033.2,026.5,12.6,0000.1,0008.13,0012.40,0007.50
2023-10-27 23:20:00,SystemResetWarning,0830.7,5.00,000.00,025.0,023.7,000.0,033.2,026.5,12.7,-000.3,0008.07,0011.97,0007.45
2023-10-27 23:21:00,SystemResetWarning,0830.7,5.00,000.00,025.0,023.7,000.0,033.2,026.5,12.8,-000.4,0008.03,0011.56,0007.41
2023-10-27 23:22:00,SystemResetWarning,0830.7,5.00,000.00,025.0,023.7,000.0,033.2,026.5,12.7,-000.3,0008.00,0012.25,0007.36
2023-10-27 23:23:00,SystemResetWarning,0830.7,4.99,000.00,025.0,023.7,000.0,033.2,026.6,12.6,-000.2,0007.98,0012.40,0007.33
2023-10-27 23:24:00,SystemResetWarning,0830.7,4.99,000.00,025.0,023.7,000.0,033.2,026.6,12.7,0000.1,0007.92,0012.38,0007.28
2023-10-27 23:25:00,SystemResetWarning,0830.6,5.00,000.00,025.0,023.7,000.0,033.2,026.6,12.6,0000.1,0007.89,0012.49,0007.23
2023-10-27 23:26:00,SystemResetWarning,0830.6,5.00,000.00,025.0,023.7,000.0,033.2,026.6,12.7,0000.2,0007.87,0012.64,0007.20
2023-10-27 23:27:00,SystemResetWarning,0830.6,5.01,000.00,025.0,023.7,000.0,033.2,026.6,12.7,0000.5,0007.80,0012.74,0007.14
2023-10-27 23:28:00,SystemResetWarning,0830.6,5.01,000.00,025.0,023.7,000.0,033.2,026.6,12.7,0000.2,0007.72,0012.58,0007.10
2023-10-27 23:29:00,SystemResetWarning,0830.5,5.00,000.00,025.0,023.7,000.0,033.3,026.6,12.6,0000.0,0007.69,0012.91,0007.08
2023-10-27 23:30:00,SystemResetWarning,0830.5,4.99,000.00,025.0,023.7,000.0,033.3,026.6,12.6,-000.1,0007.67,0013.34,0007.08
2023-10-27 23:31:00,SystemResetWarning,0830.5,4.99,000.00,025.0,023.7,000.0,033.3,026.6,12.7,0000.6,0007.65,0013.59,0007.09
2023-10-27 23:32:00,SystemResetWarning,0830.6,5.01,000.00,025.0,023.7,000.0,033.3,026.6,12.8,0001.1,0007.65,0014.55,0007.08
2023-10-27 23:33:00,SystemResetWarning,0830.6,5.01,000.00,025.1,023.7,000.0,033.3,026.6,12.8,0001.3,0007.68,0017.21,0007.09
2023-10-27 23:34:00,SystemResetWarning,0830.7,5.00,000.00,025.1,023.7,000.0,033.3,026.7,12.8,0001.4,0007.69,0017.90,0007.10
2023-10-27 23:35:00,SystemResetWarning,0830.5,5.00,000.00,025.1,023.7,000.0,033.3,026.7,12.8,0001.1,0007.68,0018.48,0007.09
2023-10-27 23:36:00,SystemResetWarning,0830.6,4.99,000.00,025.1,023.7,000.0,033.3,026.6,12.9,0000.6,0007.65,0018.49,0007.08
2023-10-27 23:37:00,SystemResetWarning,0830.6,4.99,000.00,025.1,023.7,000.0,033.3,026.6,12.9,0000.5,0007.62,0017.85,0007.06
2023-10-27 23:38:00,SystemResetWarning,0830.7,5.00,000.00,025.1,023.7,000.0,033.3,026.6,12.9,-000.0,0007.66,0017.74,0007.09
2023-10-27 23:39:00,SystemResetWarning,0830.6,5.01,000.00,025.1,023.7,000.0,033.3,026.6,12.9,0000.3,0007.73,0017.89,0007.10
2023-10-27 23:40:00,SystemResetWarning,0830.6,5.01,000.00,025.1,023.8,000.0,033.3,026.7,12.8,0001.3,0007.75,0018.47,0007.10
2023-10-27 23:41:00,SystemResetWarning,0830.5,5.00,000.00,025.1,023.8,000.0,033.4,026.7,12.7,0001.8,0007.74,0018.37,0007.09
2023-10-27 23:42:00,SystemResetWarning,0830.5,5.00,000.00,025.1,023.8,000.0,033.4,026.6,12.7,0001.8,0007.74,0018.38,0007.07
2023-10-27 23:43:00,SystemResetWarning,0830.6,4.99,000.00,025.1,023.8,000.0,033.4,026.6,12.8,0001.8,0007.74,0017.62,0007.09
2023-10-27 23:44:00,SystemResetWarning,0830.6,4.99,000.00,025.1,023.8,000.0,033.4,026.6,12.7,0002.0,0007.70,0014.59,0007.10
2023-10-27 23:45:00,SystemResetWarning,0830.7,5.00,000.00,025.1,023.8,000.0,033.4,026.7,12.6,0001.5,0007.69,0013.18,0007.11
2023-10-27 23:46:00,SystemResetWarning,0830.6,5.00,000.00,025.1,023.8,000.0,033.4,026.7,12.6,0001.4,0007.72,0012.83,0007.12
2023-10-27 23:47:00,SystemResetWarning,0830.6,5.00,000.00,025.1,023.8,000.0,033.4,026.7,12.5,0001.6,0007.77,0013.30,0007.14
2023-10-27 23:48:00,SystemResetWarning,0830.6,5.00,000.00,025.2,023.8,000.0,033.4,026.7,12.5,0000.7,0007.83,0014.27,0007.15
2023-10-27 23:49:00,SystemResetWarning,0830.6,5.00,000.00,025.2,023.8,000.0,033.4,026.7,12.4,0000.3,0007.81,0014.85,0007.16
2023-10-27 23:50:00,SystemResetWarning,0830.7,5.00,000.00,025.2,023.8,000.0,033.4,026.7,12.3,-000.2,0007.73,0015.76,0007.12
2023-10-27 23:51:00,SystemResetWarning,0830.6,5.00,000.00,025.2,023.8,000.0,033.4,026.7,12.2,-000.4,0007.70,0015.32,0007.11
2023-10-27 23:52:00,SystemResetWarning,0830.6,5.00,000.00,025.2,023.8,000.0,033.4,026.7,12.0,-000.3,0007.71,0015.08,0007.13
2023-10-27 23:53:00,SystemResetWarning,0830.6,5.00,000.00,025.2,023.8,000.0,033.4,026.7,12.2,0000.1,0007.75,0015.60,0007.13
2023-10-27 23:54:00,SystemResetWarning,0830.6,5.00,000.00,025.2,023.8,000.0,033.4,026.7,12.1,0000.2,0007.75,0015.72,0007.12
2023-10-27 23:55:00,SystemResetWarning,0830.7,5.00,000.00,025.2,023.8,000.0,033.4,026.7,12.1,0000.3,0007.77,0016.22,0007.11
2023-10-27 23:56:00,SystemResetWarning,0830.7,5.01,000.00,025.2,023.8,000.0,033.4,026.7,12.0,0000.1,0007.75,0016.13,0007.08
2023-10-27 23:57:00,SystemResetWarning,0830.6,4.99,000.00,025.2,023.8,000.0,033.5,026.7,12.1,0000.0,0007.75,0016.06,0007.07
2023-10-27 23:58:00,SystemResetWarning,0830.7,5.00,000.00,025.2,023.8,000.0,033.5,026.7,12.2,0000.1,0007.75,0015.37,0007.07
2023-10-27 23:59:00,SystemResetWarning,0830.6,4.99,000.00,025.2,023.7,000.0,033.5,026.7,12.2,0000.9,0007.75,0014.54,0007.06
